CW3359 Weather Reports


time (UTC)temp
F
wind
direction
speed
knots
gust
knots
rain 1hr
in
rain 24hr
in
rain mn
in
humidity
%
barometer
mb
20260502180907 74 230 0.0 0.0 0.00 0.00 0.00 47 1013.9
20260502170349 78 230 0.9 7.8 0.00 0.00 0.00 38 1014.1
20260502163907 78 183 1.7 5.2 0.00 0.00 0.00 38 1014.1
20260502163352 78 202 1.7 7.8 0.00 0.00 0.00 39 1014.2
20260502161907 78 231 2.6 6.1 0.00 0.00 0.00 39 1014.4
20260502160906 78 248 5.2 8.7 0.00 0.00 0.00 38 1014.5
20260502160349 78 264 2.6 9.6 0.00 0.00 0.00 38 1014.7
20260502151905 79 234 3.5 8.7 0.00 0.00 0.00 38 1015.1
20260502151343 80 231 3.5 9.6 0.00 0.00 0.00 37 1015.2
20260502150358 78 259 2.6 9.6 0.00 0.00 0.00 39 1015.4
20260502122901 78 157 1.7 8.7 0.00 0.00 0.00 35 1017.6
20260502121901 77 207 0.0 5.2 0.00 0.00 0.00 37 1017.6
20260502120901 76 173 3.5 7.8 0.00 0.00 0.00 37 1017.8
20260502120343 76 128 1.7 9.6 0.00 0.00 0.00 36 1017.9
20260502114905 76 107 2.6 9.6 0.00 0.00 0.00 36 1018.1
20260502113903 76 159 3.5 8.7 0.00 0.00 0.00 35 1018.2
20260502112903 77 86 3.5 7.8 0.00 0.00 0.00 34 1018.2
20260502111902 76 102 0.0 3.5 0.00 0.00 0.00 36 1018.5
20260502110901 75 107 0.0 6.1 0.00 0.00 0.00 37 1018.5
20260502105859 76 102 0.0 1.7 0.00 0.00 0.00 37 1018.5
20260502104859 73 109 0.0 2.6 0.00 0.00 0.00 39 1018.7
20260502103859 74 110 1.7 7.8 0.00 0.00 0.00 35 1018.9
20260502102858 74 73 0.0 3.5 0.00 0.00 0.00 37 1019.0
20260502101858 72 72 0.0 2.6 0.00 0.00 0.00 38 1019.2
20260502100858 71 73 0.0 5.2 0.00 0.00 0.00 37 1019.3
20260502090859 67 100 0.0 2.6 0.00 0.00 0.00 45 1020.1
20260502071333 52 104 0.0 0.0 0.00 0.00 0.00 68 1021.0
20260502065854 51 104 0.0 0.0 0.00 0.00 0.00 69 1021.1
20260502064853 49 104 0.0 0.0 0.00 0.00 0.00 72 1021.2
20260502064338 48 104 0.0 0.0 0.00 0.00 0.00 75 1021.3
20260502063342 46 104 0.0 0.0 0.00 0.00 0.00 78 1021.3
20260502061852 45 104 0.0 0.0 0.00 0.00 0.00 79 1021.4
20260502060855 44 104 0.0 0.0 0.00 0.00 0.00 81 1021.3
20260502055854 43 104 0.0 0.0 0.00 0.00 0.00 81 1021.4
20260502054852 42 104 0.0 0.0 0.00 0.00 0.00 82 1021.4
20260502054805 42 104 0.0 0.0 0.00 0.00 0.00 83 1021.3
20260502053337 41 104 0.0 0.0 0.00 0.00 0.00 83 1021.4
20260502052327 41 104 0.0 0.0 0.00 0.00 0.00 84 1021.3
20260502050851 40 104 0.0 0.0 0.00 0.00 0.00 84 1021.3
20260502045851 40 104 0.0 0.0 0.00 0.00 0.00 84 1021.3
20260502045328 39 104 0.0 0.0 0.00 0.00 0.00 84 1021.3
20260502043850 39 104 0.0 0.0 0.00 0.00 0.00 84 1021.2
20260502042851 39 104 0.0 0.0 0.00 0.00 0.00 83 1021.2
20260502041850 40 104 0.0 0.0 0.00 0.00 0.00 83 1021.2
20260502041823 40 104 0.0 0.0 0.00 0.00 0.00 83 1021.3
20260502035853 40 104 0.0 0.0 0.00 0.00 0.00 84 1021.2
20260502034852 40 104 0.0 0.0 0.00 0.00 0.00 83 1021.2
20260502033849 40 104 0.0 0.0 0.00 0.00 0.00 83 1021.4
20260502032849 40 104 0.0 0.0 0.00 0.00 0.00 83 1021.2
20260502031848 40 104 0.0 0.0 0.00 0.00 0.00 82 1021.3
20260502030850 40 104 0.0 0.0 0.00 0.00 0.00 83 1021.4
20260502025848 40 104 0.0 0.0 0.00 0.00 0.00 83 1021.3
20260502025330 40 104 0.0 0.0 0.00 0.00 0.00 82 1021.3
20260502023848 41 104 0.0 0.0 0.00 0.00 0.00 81 1021.3
20260502022852 41 104 0.0 0.0 0.00 0.00 0.00 80 1021.3
20260502022332 42 104 0.0 0.0 0.00 0.00 0.00 80 1021.3
20260502020851 42 104 0.0 0.0 0.00 0.00 0.00 79 1021.3
20260502015851 42 104 0.0 0.0 0.00 0.00 0.00 79 1021.3
20260502014846 42 104 0.0 0.0 0.00 0.00 0.00 79 1021.3
20260502014329 43 104 0.0 0.0 0.00 0.00 0.00 79 1021.3
20260502012850 43 104 0.0 0.0 0.00 0.00 0.00 78 1021.3
20260502011849 43 104 0.0 0.0 0.00 0.00 0.00 78 1021.4
20260502010848 44 104 0.0 0.0 0.00 0.00 0.00 76 1021.4
20260502005848 44 104 0.0 0.0 0.00 0.00 0.00 76 1021.4
20260502004849 45 104 0.0 0.0 0.00 0.00 0.00 75 1021.6
20260502003848 45 104 0.0 0.0 0.00 0.00 0.00 76 1021.7
20260502002848 44 104 0.0 0.0 0.00 0.00 0.00 76 1021.7
20260502001848 44 104 0.0 0.0 0.00 0.00 0.00 76 1021.7
20260502001321 44 104 0.0 0.0 0.00 0.00 0.00 76 1021.7
20260502000326 45 104 0.0 0.0 0.00 0.00 0.00 75 1021.8
20260501234844 45 104 0.0 0.0 0.00 0.00 0.00 74 1021.8
20260501233844 46 104 0.0 0.0 0.00 0.00 0.00 73 1021.9
20260501232843 47 104 0.0 0.0 0.00 0.00 0.00 72 1021.9
20260501231844 47 104 0.0 0.0 0.00 0.00 0.00 72 1021.9
20260501230843 47 104 0.0 0.0 0.00 0.00 0.00 71 1021.9
20260501225843 47 104 0.0 0.0 0.00 0.00 0.00 70 1022.1
20260501225317 48 104 0.0 0.0 0.00 0.00 0.00 70 1022.0
20260501224323 48 104 0.0 0.0 0.00 0.00 0.00 69 1022.0
20260501223310 49 104 0.0 0.0 0.00 0.00 0.00 69 1022.0
20260501223038 48 104 0.0 0.0 0.00 0.00 0.00 69 1022.0
20260501221320 49 104 0.0 0.0 0.00 0.00 0.00 67 1022.0
20260501220320 50 104 0.0 0.0 0.00 0.00 0.00 66 1021.9
20260501214844 50 104 0.0 0.0 0.00 0.00 0.00 66 1021.9
20260501213844 51 104 0.0 0.0 0.00 0.00 0.00 64 1022.0
20260501212845 51 104 0.0 0.0 0.00 0.00 0.00 63 1022.0
20260501211841 52 104 0.0 0.0 0.00 0.00 0.00 62 1021.9
20260501211324 52 104 0.0 0.0 0.00 0.00 0.00 61 1021.8
20260501205840 53 104 0.0 0.0 0.00 0.00 0.00 61 1021.8
20260501204839 54 104 0.0 0.0 0.00 0.00 0.00 59 1021.9
20260501203840 55 104 0.0 0.0 0.00 0.00 0.00 58 1021.8
20260501202842 54 104 0.0 0.0 0.00 0.00 0.00 59 1021.8
20260501201842 55 104 0.0 0.0 0.00 0.00 0.00 57 1021.8
20260501200842 56 104 0.0 0.0 0.00 0.00 0.00 57 1021.8
20260501195839 57 104 0.0 0.0 0.00 0.00 0.00 55 1021.7
20260501195755 58 104 0.0 0.0 0.00 0.00 0.00 52 1021.5
20260501193839 59 104 0.0 0.0 0.00 0.00 0.00 53 1021.6
20260501192838 60 104 0.0 0.0 0.00 0.00 0.00 51 1021.5
20260501191838 61 104 0.0 0.0 0.00 0.00 0.00 49 1021.5
20260501190838 63 104 0.0 0.0 0.00 0.00 0.00 46 1021.4
20260501185840 65 104 0.0 0.0 0.00 0.00 0.00 43 1021.4
20260501184841 67 104 0.0 0.0 0.00 0.00 0.00 39 1021.3
20260501183840 68 104 0.0 0.0 0.00 0.00 0.00 35 1021.2
20260501182840 70 104 0.0 0.0 0.00 0.00 0.00 32 1021.3
20260501182813 71 104 0.0 0.0 0.00 0.00 0.00 30 1021.2